Data supplied by UK-AIR on 3/5/2024
All Data GMT hour ending 
Status: R =Ratified P=Provisional,P*=As supplied
,,Saltash Callington Road,,,,,,,,,,,,,,,,,,,,,,,
Date,time,"PM<sub>10</sub> particulate matter (Hourly measured)",status,unit,"PM<sub>2.5</sub> particulate matter (Hourly measured)",status,unit
 
01-01-2024,01:00,29.952,P,ugm-3 (Ref.eq),9.100,P,ugm-3 (BAM)
01-01-2024,02:00,22.223,P,ugm-3 (Ref.eq),6.100,P,ugm-3 (BAM)
01-01-2024,03:00,13.527,P,ugm-3 (Ref.eq),4.100,P,ugm-3 (BAM)
01-01-2024,04:00,20.290,P,ugm-3 (Ref.eq),4.100,P,ugm-3 (BAM)
01-01-2024,05:00,20.290,P,ugm-3 (Ref.eq),4.100,P,ugm-3 (BAM)
01-01-2024,06:00,15.459,P,ugm-3 (Ref.eq),4.100,P,ugm-3 (BAM)
01-01-2024,07:00,10.628,P,ugm-3 (Ref.eq),5.100,P,ugm-3 (BAM)
01-01-2024,08:00,11.594,P,ugm-3 (Ref.eq),3.100,P,ugm-3 (BAM)
01-01-2024,09:00,21.256,P,ugm-3 (Ref.eq),5.100,P,ugm-3 (BAM)
01-01-2024,10:00,16.425,P,ugm-3 (Ref.eq),7.100,P,ugm-3 (BAM)
01-01-2024,11:00,20.290,P,ugm-3 (Ref.eq),7.100,P,ugm-3 (BAM)
01-01-2024,12:00,16.425,P,ugm-3 (Ref.eq),4.100,P,ugm-3 (BAM)
01-01-2024,13:00,17.392,P,ugm-3 (Ref.eq),4.100,P,ugm-3 (BAM)
01-01-2024,14:00,12.561,P,ugm-3 (Ref.eq),5.100,P,ugm-3 (BAM)
01-01-2024,15:00,17.392,P,ugm-3 (Ref.eq),3.100,P,ugm-3 (BAM)
01-01-2024,16:00,14.493,P,ugm-3 (Ref.eq),1.100,P,ugm-3 (BAM)
01-01-2024,17:00,12.561,P,ugm-3 (Ref.eq),3.100,P,ugm-3 (BAM)
01-01-2024,18:00,12.561,P,ugm-3 (Ref.eq),2.100,P,ugm-3 (BAM)
01-01-2024,19:00,17.392,P,ugm-3 (Ref.eq),6.100,P,ugm-3 (BAM)
01-01-2024,20:00,17.392,P,ugm-3 (Ref.eq),6.100,P,ugm-3 (BAM)
01-01-2024,21:00,12.561,P,ugm-3 (Ref.eq),5.100,P,ugm-3 (BAM)
01-01-2024,22:00,7.730,P,ugm-3 (Ref.eq),4.100,P,ugm-3 (BAM)
01-01-2024,23:00,16.425,P,ugm-3 (Ref.eq),4.100,P,ugm-3 (BAM)
01-01-2024,24:00,21.256,P,ugm-3 (Ref.eq),4.100,P,ugm-3 (BAM)
02-01-2024,01:00,27.054,P,ugm-3 (Ref.eq),7.100,P,ugm-3 (BAM)
02-01-2024,02:00,31.885,P,ugm-3 (Ref.eq),10.100,P,ugm-3 (BAM)
02-01-2024,03:00,24.155,P,ugm-3 (Ref.eq),7.100,P,ugm-3 (BAM)
02-01-2024,04:00,22.223,P,ugm-3 (Ref.eq),3.100,P,ugm-3 (BAM)
02-01-2024,05:00,9.662,P,ugm-3 (Ref.eq),2.100,P,ugm-3 (BAM)
02-01-2024,06:00,5.797,P,ugm-3 (Ref.eq),1.100,P,ugm-3 (BAM)
02-01-2024,07:00,2.899,P,ugm-3 (Ref.eq),-0.900,P,ugm-3 (BAM)
02-01-2024,08:00,10.628,P,ugm-3 (Ref.eq),-0.900,P,ugm-3 (BAM)
02-01-2024,09:00,11.594,P,ugm-3 (Ref.eq),3.100,P,ugm-3 (BAM)
02-01-2024,10:00,12.561,P,ugm-3 (Ref.eq),4.100,P,ugm-3 (BAM)
02-01-2024,11:00,28.020,P,ugm-3 (Ref.eq),4.100,P,ugm-3 (BAM)
02-01-2024,12:00,18.358,P,ugm-3 (Ref.eq),3.100,P,ugm-3 (BAM)
02-01-2024,13:00,9.662,P,ugm-3 (Ref.eq),3.100,P,ugm-3 (BAM)
02-01-2024,14:00,12.561,P,ugm-3 (Ref.eq),2.100,P,ugm-3 (BAM)
02-01-2024,15:00,14.493,P,ugm-3 (Ref.eq),3.100,P,ugm-3 (BAM)
02-01-2024,16:00,19.324,P,ugm-3 (Ref.eq),2.100,P,ugm-3 (BAM)
02-01-2024,17:00,27.054,P,ugm-3 (Ref.eq),7.100,P,ugm-3 (BAM)
02-01-2024,18:00,16.425,P,ugm-3 (Ref.eq),7.100,P,ugm-3 (BAM)
02-01-2024,19:00,26.087,P,ugm-3 (Ref.eq),8.100,P,ugm-3 (BAM)
02-01-2024,20:00,27.054,P,ugm-3 (Ref.eq),8.100,P,ugm-3 (BAM)
02-01-2024,21:00,28.020,P,ugm-3 (Ref.eq),12.100,P,ugm-3 (BAM)
02-01-2024,22:00,35.749,P,ugm-3 (Ref.eq),9.100,P,ugm-3 (BAM)
02-01-2024,23:00,30.918,P,ugm-3 (Ref.eq),11.100,P,ugm-3 (BAM)
02-01-2024,24:00,20.290,P,ugm-3 (Ref.eq),8.100,P,ugm-3 (BAM)
03-01-2024,01:00,15.459,P,ugm-3 (Ref.eq),4.100,P,ugm-3 (BAM)
03-01-2024,02:00,27.054,P,ugm-3 (Ref.eq),8.100,P,ugm-3 (BAM)
03-01-2024,03:00,24.155,P,ugm-3 (Ref.eq),9.100,P,ugm-3 (BAM)
03-01-2024,04:00,28.986,P,ugm-3 (Ref.eq),8.100,P,ugm-3 (BAM)
03-01-2024,05:00,28.986,P,ugm-3 (Ref.eq),8.100,P,ugm-3 (BAM)
03-01-2024,06:00,24.155,P,ugm-3 (Ref.eq),8.100,P,ugm-3 (BAM)
03-01-2024,07:00,20.290,P,ugm-3 (Ref.eq),8.100,P,ugm-3 (BAM)
03-01-2024,08:00,28.020,P,ugm-3 (Ref.eq),10.100,P,ugm-3 (BAM)
03-01-2024,09:00,12.561,P,ugm-3 (Ref.eq),7.100,P,ugm-3 (BAM)
03-01-2024,10:00,10.628,P,ugm-3 (Ref.eq),7.100,P,ugm-3 (BAM)
03-01-2024,11:00,13.527,P,ugm-3 (Ref.eq),6.100,P,ugm-3 (BAM)
03-01-2024,12:00,11.594,P,ugm-3 (Ref.eq),3.100,P,ugm-3 (BAM)
03-01-2024,13:00,10.628,P,ugm-3 (Ref.eq),4.100,P,ugm-3 (BAM)
03-01-2024,14:00,15.459,P,ugm-3 (Ref.eq),6.100,P,ugm-3 (BAM)
03-01-2024,15:00,10.628,P,ugm-3 (Ref.eq),4.100,P,ugm-3 (BAM)
03-01-2024,16:00,14.493,P,ugm-3 (Ref.eq),2.100,P,ugm-3 (BAM)
03-01-2024,17:00,17.392,P,ugm-3 (Ref.eq),5.100,P,ugm-3 (BAM)
03-01-2024,18:00,15.459,P,ugm-3 (Ref.eq),8.100,P,ugm-3 (BAM)
03-01-2024,19:00,11.594,P,ugm-3 (Ref.eq),7.100,P,ugm-3 (BAM)
03-01-2024,20:00,22.223,P,ugm-3 (Ref.eq),7.100,P,ugm-3 (BAM)
03-01-2024,21:00,32.851,P,ugm-3 (Ref.eq),7.100,P,ugm-3 (BAM)
03-01-2024,22:00,23.189,P,ugm-3 (Ref.eq),8.100,P,ugm-3 (BAM)
03-01-2024,23:00,17.392,P,ugm-3 (Ref.eq),7.100,P,ugm-3 (BAM)
03-01-2024,24:00,16.425,P,ugm-3 (Ref.eq),6.100,P,ugm-3 (BAM)
04-01-2024,01:00,18.358,P,ugm-3 (Ref.eq),7.100,P,ugm-3 (BAM)
04-01-2024,02:00,19.324,P,ugm-3 (Ref.eq),6.100,P,ugm-3 (BAM)
04-01-2024,03:00,18.358,P,ugm-3 (Ref.eq),3.100,P,ugm-3 (BAM)
04-01-2024,04:00,16.425,P,ugm-3 (Ref.eq),3.100,P,ugm-3 (BAM)
04-01-2024,05:00,18.358,P,ugm-3 (Ref.eq),6.100,P,ugm-3 (BAM)
04-01-2024,06:00,21.256,P,ugm-3 (Ref.eq),4.100,P,ugm-3 (BAM)
04-01-2024,07:00,14.493,P,ugm-3 (Ref.eq),3.100,P,ugm-3 (BAM)
04-01-2024,08:00,11.594,P,ugm-3 (Ref.eq),4.100,P,ugm-3 (BAM)
04-01-2024,09:00,21.256,P,ugm-3 (Ref.eq),5.100,P,ugm-3 (BAM)
04-01-2024,10:00,22.223,P,ugm-3 (Ref.eq),5.100,P,ugm-3 (BAM)
04-01-2024,11:00,18.358,P,ugm-3 (Ref.eq),7.100,P,ugm-3 (BAM)
04-01-2024,12:00,10.628,P,ugm-3 (Ref.eq),5.100,P,ugm-3 (BAM)
04-01-2024,13:00,14.493,P,ugm-3 (Ref.eq),5.100,P,ugm-3 (BAM)
04-01-2024,14:00,7.730,P,ugm-3 (Ref.eq),4.100,P,ugm-3 (BAM)
04-01-2024,15:00,2.899,P,ugm-3 (Ref.eq),2.100,P,ugm-3 (BAM)
04-01-2024,16:00,3.865,P,ugm-3 (Ref.eq),1.100,P,ugm-3 (BAM)
04-01-2024,17:00,10.628,P,ugm-3 (Ref.eq),1.100,P,ugm-3 (BAM)
04-01-2024,18:00,9.662,P,ugm-3 (Ref.eq),3.100,P,ugm-3 (BAM)
04-01-2024,19:00,9.662,P,ugm-3 (Ref.eq),6.100,P,ugm-3 (BAM)
04-01-2024,20:00,11.594,P,ugm-3 (Ref.eq),8.100,P,ugm-3 (BAM)
04-01-2024,21:00,21.256,P,ugm-3 (Ref.eq),9.100,P,ugm-3 (BAM)
04-01-2024,22:00,18.358,P,ugm-3 (Ref.eq),9.100,P,ugm-3 (BAM)
04-01-2024,23:00,12.561,P,ugm-3 (Ref.eq),9.100,P,ugm-3 (BAM)
04-01-2024,24:00,10.628,P,ugm-3 (Ref.eq),12.100,P,ugm-3 (BAM)
05-01-2024,01:00,14.493,P,ugm-3 (Ref.eq),8.100,P,ugm-3 (BAM)
05-01-2024,02:00,9.662,P,ugm-3 (Ref.eq),4.100,P,ugm-3 (BAM)
05-01-2024,03:00,12.561,P,ugm-3 (Ref.eq),3.100,P,ugm-3 (BAM)
05-01-2024,04:00,7.730,P,ugm-3 (Ref.eq),0.100,P,ugm-3 (BAM)
05-01-2024,05:00,3.865,P,ugm-3 (Ref.eq),0.100,P,ugm-3 (BAM)
05-01-2024,06:00,12.561,P,ugm-3 (Ref.eq),3.100,P,ugm-3 (BAM)
05-01-2024,07:00,12.561,P,ugm-3 (Ref.eq),5.100,P,ugm-3 (BAM)
05-01-2024,08:00,16.425,P,ugm-3 (Ref.eq),8.100,P,ugm-3 (BAM)
05-01-2024,09:00,16.425,P,ugm-3 (Ref.eq),9.100,P,ugm-3 (BAM)
05-01-2024,10:00,20.290,P,ugm-3 (Ref.eq),14.100,P,ugm-3 (BAM)
05-01-2024,11:00,10.628,P,ugm-3 (Ref.eq),7.100,P,ugm-3 (BAM)
05-01-2024,12:00,8.696,P,ugm-3 (Ref.eq),2.100,P,ugm-3 (BAM)
05-01-2024,13:00,8.696,P,ugm-3 (Ref.eq),2.100,P,ugm-3 (BAM)
05-01-2024,14:00,20.290,P,ugm-3 (Ref.eq),1.100,P,ugm-3 (BAM)
05-01-2024,15:00,9.662,P,ugm-3 (Ref.eq),0.100,P,ugm-3 (BAM)
05-01-2024,16:00,9.662,P,ugm-3 (Ref.eq),4.100,P,ugm-3 (BAM)
05-01-2024,17:00,10.628,P,ugm-3 (Ref.eq),5.100,P,ugm-3 (BAM)
05-01-2024,18:00,15.459,P,ugm-3 (Ref.eq),7.100,P,ugm-3 (BAM)
05-01-2024,19:00,17.392,P,ugm-3 (Ref.eq),8.100,P,ugm-3 (BAM)
05-01-2024,20:00,12.561,P,ugm-3 (Ref.eq),6.100,P,ugm-3 (BAM)
05-01-2024,21:00,15.459,P,ugm-3 (Ref.eq),6.100,P,ugm-3 (BAM)
05-01-2024,22:00,17.392,P,ugm-3 (Ref.eq),7.100,P,ugm-3 (BAM)
05-01-2024,23:00,22.223,P,ugm-3 (Ref.eq),5.100,P,ugm-3 (BAM)
05-01-2024,24:00,17.392,P,ugm-3 (Ref.eq),5.100,P,ugm-3 (BAM)
06-01-2024,01:00,17.392,P,ugm-3 (Ref.eq),7.100,P,ugm-3 (BAM)
06-01-2024,02:00,16.425,P,ugm-3 (Ref.eq),6.100,P,ugm-3 (BAM)
06-01-2024,03:00,13.527,P,ugm-3 (Ref.eq),3.100,P,ugm-3 (BAM)
06-01-2024,04:00,17.392,P,ugm-3 (Ref.eq),2.100,P,ugm-3 (BAM)
06-01-2024,05:00,12.561,P,ugm-3 (Ref.eq),2.100,P,ugm-3 (BAM)
06-01-2024,06:00,12.561,P,ugm-3 (Ref.eq),4.100,P,ugm-3 (BAM)
06-01-2024,07:00,10.628,P,ugm-3 (Ref.eq),6.100,P,ugm-3 (BAM)
06-01-2024,08:00,20.290,P,ugm-3 (Ref.eq),7.100,P,ugm-3 (BAM)
06-01-2024,09:00,16.425,P,ugm-3 (Ref.eq),6.100,P,ugm-3 (BAM)
06-01-2024,10:00,12.561,P,ugm-3 (Ref.eq),7.100,P,ugm-3 (BAM)
06-01-2024,11:00,13.527,P,ugm-3 (Ref.eq),7.100,P,ugm-3 (BAM)
06-01-2024,12:00,13.527,P,ugm-3 (Ref.eq),5.100,P,ugm-3 (BAM)
06-01-2024,13:00,15.459,P,ugm-3 (Ref.eq),3.100,P,ugm-3 (BAM)
06-01-2024,14:00,14.493,P,ugm-3 (Ref.eq),2.100,P,ugm-3 (BAM)
06-01-2024,15:00,21.256,P,ugm-3 (Ref.eq),5.100,P,ugm-3 (BAM)
06-01-2024,16:00,11.594,P,ugm-3 (Ref.eq),3.100,P,ugm-3 (BAM)
06-01-2024,17:00,20.290,P,ugm-3 (Ref.eq),6.100,P,ugm-3 (BAM)
06-01-2024,18:00,15.459,P,ugm-3 (Ref.eq),7.100,P,ugm-3 (BAM)
06-01-2024,19:00,19.324,P,ugm-3 (Ref.eq),10.100,P,ugm-3 (BAM)
06-01-2024,20:00,26.087,P,ugm-3 (Ref.eq),18.100,P,ugm-3 (BAM)
06-01-2024,21:00,14.493,P,ugm-3 (Ref.eq),6.100,P,ugm-3 (BAM)
06-01-2024,22:00,13.527,P,ugm-3 (Ref.eq),13.100,P,ugm-3 (BAM)
06-01-2024,23:00,22.223,P,ugm-3 (Ref.eq),15.100,P,ugm-3 (BAM)
06-01-2024,24:00,17.392,P,ugm-3 (Ref.eq),15.100,P,ugm-3 (BAM)
07-01-2024,01:00,13.527,P,ugm-3 (Ref.eq),11.100,P,ugm-3 (BAM)
07-01-2024,02:00,11.594,P,ugm-3 (Ref.eq),8.100,P,ugm-3 (BAM)
07-01-2024,03:00,16.425,P,ugm-3 (Ref.eq),6.100,P,ugm-3 (BAM)
07-01-2024,04:00,11.594,P,ugm-3 (Ref.eq),8.100,P,ugm-3 (BAM)
07-01-2024,05:00,10.628,P,ugm-3 (Ref.eq),6.100,P,ugm-3 (BAM)
07-01-2024,06:00,11.594,P,ugm-3 (Ref.eq),6.100,P,ugm-3 (BAM)
07-01-2024,07:00,9.662,P,ugm-3 (Ref.eq),8.100,P,ugm-3 (BAM)
07-01-2024,08:00,13.527,P,ugm-3 (Ref.eq),8.100,P,ugm-3 (BAM)
07-01-2024,09:00,12.561,P,ugm-3 (Ref.eq),9.100,P,ugm-3 (BAM)
07-01-2024,10:00,18.358,P,ugm-3 (Ref.eq),11.100,P,ugm-3 (BAM)
07-01-2024,11:00,14.493,P,ugm-3 (Ref.eq),9.100,P,ugm-3 (BAM)
07-01-2024,12:00,9.662,P,ugm-3 (Ref.eq),6.100,P,ugm-3 (BAM)
07-01-2024,13:00,10.628,P,ugm-3 (Ref.eq),5.100,P,ugm-3 (BAM)
07-01-2024,14:00,8.696,P,ugm-3 (Ref.eq),5.100,P,ugm-3 (BAM)
07-01-2024,15:00,14.493,P,ugm-3 (Ref.eq),6.100,P,ugm-3 (BAM)
07-01-2024,16:00,15.459,P,ugm-3 (Ref.eq),10.100,P,ugm-3 (BAM)
07-01-2024,17:00,31.885,P,ugm-3 (Ref.eq),20.100,P,ugm-3 (BAM)
07-01-2024,18:00,22.223,P,ugm-3 (Ref.eq),12.100,P,ugm-3 (BAM)
07-01-2024,19:00,21.256,P,ugm-3 (Ref.eq),10.100,P,ugm-3 (BAM)
07-01-2024,20:00,18.358,P,ugm-3 (Ref.eq),9.100,P,ugm-3 (BAM)
07-01-2024,21:00,16.425,P,ugm-3 (Ref.eq),10.100,P,ugm-3 (BAM)
07-01-2024,22:00,16.425,P,ugm-3 (Ref.eq),13.100,P,ugm-3 (BAM)
07-01-2024,23:00,22.223,P,ugm-3 (Ref.eq),19.100,P,ugm-3 (BAM)
07-01-2024,24:00,18.358,P,ugm-3 (Ref.eq),11.100,P,ugm-3 (BAM)
08-01-2024,01:00,14.493,P,ugm-3 (Ref.eq),10.100,P,ugm-3 (BAM)
08-01-2024,02:00,11.594,P,ugm-3 (Ref.eq),6.100,P,ugm-3 (BAM)
08-01-2024,03:00,16.425,P,ugm-3 (Ref.eq),10.100,P,ugm-3 (BAM)
08-01-2024,04:00,12.561,P,ugm-3 (Ref.eq),10.100,P,ugm-3 (BAM)
08-01-2024,05:00,15.459,P,ugm-3 (Ref.eq),7.100,P,ugm-3 (BAM)
08-01-2024,06:00,9.662,P,ugm-3 (Ref.eq),8.100,P,ugm-3 (BAM)
08-01-2024,07:00,16.425,P,ugm-3 (Ref.eq),7.100,P,ugm-3 (BAM)
08-01-2024,08:00,18.358,P,ugm-3 (Ref.eq),11.100,P,ugm-3 (BAM)
08-01-2024,09:00,16.425,P,ugm-3 (Ref.eq),8.100,P,ugm-3 (BAM)
08-01-2024,10:00,14.493,P,ugm-3 (Ref.eq),7.100,P,ugm-3 (BAM)
08-01-2024,11:00,12.561,P,ugm-3 (Ref.eq),7.100,P,ugm-3 (BAM)
08-01-2024,12:00,22.223,P,ugm-3 (Ref.eq),5.100,P,ugm-3 (BAM)
08-01-2024,13:00,25.121,P,ugm-3 (Ref.eq),4.100,P,ugm-3 (BAM)
08-01-2024,14:00,26.087,P,ugm-3 (Ref.eq),3.100,P,ugm-3 (BAM)
08-01-2024,15:00,26.087,P,ugm-3 (Ref.eq),7.100,P,ugm-3 (BAM)
08-01-2024,16:00,24.155,P,ugm-3 (Ref.eq),8.100,P,ugm-3 (BAM)
08-01-2024,17:00,30.918,P,ugm-3 (Ref.eq),10.100,P,ugm-3 (BAM)
08-01-2024,18:00,19.324,P,ugm-3 (Ref.eq),10.100,P,ugm-3 (BAM)
08-01-2024,19:00,21.256,P,ugm-3 (Ref.eq),10.100,P,ugm-3 (BAM)
08-01-2024,20:00,26.087,P,ugm-3 (Ref.eq),11.100,P,ugm-3 (BAM)
08-01-2024,21:00,19.324,P,ugm-3 (Ref.eq),12.100,P,ugm-3 (BAM)
08-01-2024,22:00,23.189,P,ugm-3 (Ref.eq),14.100,P,ugm-3 (BAM)
08-01-2024,23:00,10.628,P,ugm-3 (Ref.eq),11.100,P,ugm-3 (BAM)
08-01-2024,24:00,12.561,P,ugm-3 (Ref.eq),9.100,P,ugm-3 (BAM)
09-01-2024,01:00,14.493,P,ugm-3 (Ref.eq),12.100,P,ugm-3 (BAM)
09-01-2024,02:00,16.425,P,ugm-3 (Ref.eq),14.100,P,ugm-3 (BAM)
09-01-2024,03:00,19.324,P,ugm-3 (Ref.eq),16.100,P,ugm-3 (BAM)
09-01-2024,04:00,15.459,P,ugm-3 (Ref.eq),12.100,P,ugm-3 (BAM)
09-01-2024,05:00,16.425,P,ugm-3 (Ref.eq),8.100,P,ugm-3 (BAM)
09-01-2024,06:00,19.324,P,ugm-3 (Ref.eq),10.100,P,ugm-3 (BAM)
09-01-2024,07:00,21.256,P,ugm-3 (Ref.eq),15.100,P,ugm-3 (BAM)
09-01-2024,08:00,21.256,P,ugm-3 (Ref.eq),11.100,P,ugm-3 (BAM)
09-01-2024,09:00,21.256,P,ugm-3 (Ref.eq),11.100,P,ugm-3 (BAM)
09-01-2024,10:00,21.256,P,ugm-3 (Ref.eq),10.100,P,ugm-3 (BAM)
09-01-2024,11:00,19.324,P,ugm-3 (Ref.eq),9.100,P,ugm-3 (BAM)
09-01-2024,12:00,,,,,,
09-01-2024,13:00,,,,,,
09-01-2024,14:00,,,,,,
09-01-2024,15:00,,,,,,
09-01-2024,16:00,,,,,,
09-01-2024,17:00,,,,,,
09-01-2024,18:00,,,,,,
09-01-2024,19:00,,,,,,
09-01-2024,20:00,,,,,,
09-01-2024,21:00,,,,,,
09-01-2024,22:00,,,,,,
09-01-2024,23:00,,,,,,
09-01-2024,24:00,,,,,,
10-01-2024,01:00,,,,,,
10-01-2024,02:00,,,,,,
10-01-2024,03:00,,,,,,
10-01-2024,04:00,,,,,,
10-01-2024,05:00,,,,,,
10-01-2024,06:00,,,,,,
10-01-2024,07:00,,,,,,
10-01-2024,08:00,,,,,,
10-01-2024,09:00,,,,,,
10-01-2024,10:00,,,,,,
10-01-2024,11:00,,,,,,
10-01-2024,12:00,,,,,,
10-01-2024,13:00,,,,,,
10-01-2024,14:00,,,,,,
10-01-2024,15:00,,,,,,
10-01-2024,16:00,,,,,,
10-01-2024,17:00,,,,,,
10-01-2024,18:00,,,,,,
10-01-2024,19:00,,,,,,
10-01-2024,20:00,,,,,,
10-01-2024,21:00,,,,,,
10-01-2024,22:00,,,,,,
10-01-2024,23:00,,,,,,
10-01-2024,24:00,,,,,,
11-01-2024,01:00,,,,,,
11-01-2024,02:00,,,,,,
11-01-2024,03:00,,,,,,
11-01-2024,04:00,,,,,,
11-01-2024,05:00,,,,,,
11-01-2024,06:00,,,,,,
11-01-2024,07:00,,,,,,
11-01-2024,08:00,,,,,,
11-01-2024,09:00,,,,,,
11-01-2024,10:00,,,,,,
11-01-2024,11:00,,,,,,
11-01-2024,12:00,,,,,,
11-01-2024,13:00,,,,,,
11-01-2024,14:00,,,,,,
11-01-2024,15:00,,,,,,
11-01-2024,16:00,,,,,,
11-01-2024,17:00,,,,,,
11-01-2024,18:00,,,,,,
11-01-2024,19:00,,,,,,
11-01-2024,20:00,,,,,,
11-01-2024,21:00,,,,,,
11-01-2024,22:00,,,,,,
11-01-2024,23:00,,,,,,
11-01-2024,24:00,,,,,,
12-01-2024,01:00,,,,,,
12-01-2024,02:00,,,,,,
12-01-2024,03:00,,,,,,
12-01-2024,04:00,,,,,,
12-01-2024,05:00,,,,,,
12-01-2024,06:00,,,,,,
12-01-2024,07:00,,,,,,
12-01-2024,08:00,,,,,,
12-01-2024,09:00,,,,,,
12-01-2024,10:00,,,,,,
12-01-2024,11:00,,,,,,
12-01-2024,12:00,,,,,,
12-01-2024,13:00,31.885,P,ugm-3 (Ref.eq),10.100,P,ugm-3 (BAM)
12-01-2024,14:00,28.986,P,ugm-3 (Ref.eq),13.100,P,ugm-3 (BAM)
12-01-2024,15:00,34.783,P,ugm-3 (Ref.eq),11.100,P,ugm-3 (BAM)
12-01-2024,16:00,29.952,P,ugm-3 (Ref.eq),8.100,P,ugm-3 (BAM)
12-01-2024,17:00,22.223,P,ugm-3 (Ref.eq),11.100,P,ugm-3 (BAM)
12-01-2024,18:00,16.425,P,ugm-3 (Ref.eq),10.100,P,ugm-3 (BAM)
12-01-2024,19:00,19.324,P,ugm-3 (Ref.eq),12.100,P,ugm-3 (BAM)
12-01-2024,20:00,16.425,P,ugm-3 (Ref.eq),10.100,P,ugm-3 (BAM)
12-01-2024,21:00,14.493,P,ugm-3 (Ref.eq),8.100,P,ugm-3 (BAM)
12-01-2024,22:00,16.425,P,ugm-3 (Ref.eq),11.100,P,ugm-3 (BAM)
12-01-2024,23:00,14.493,P,ugm-3 (Ref.eq),10.100,P,ugm-3 (BAM)
12-01-2024,24:00,11.594,P,ugm-3 (Ref.eq),10.100,P,ugm-3 (BAM)
13-01-2024,01:00,9.662,P,ugm-3 (Ref.eq),11.100,P,ugm-3 (BAM)
13-01-2024,02:00,14.493,P,ugm-3 (Ref.eq),10.100,P,ugm-3 (BAM)
13-01-2024,03:00,10.628,P,ugm-3 (Ref.eq),9.100,P,ugm-3 (BAM)
13-01-2024,04:00,15.459,P,ugm-3 (Ref.eq),8.100,P,ugm-3 (BAM)
13-01-2024,05:00,13.527,P,ugm-3 (Ref.eq),13.100,P,ugm-3 (BAM)
13-01-2024,06:00,19.324,P,ugm-3 (Ref.eq),10.100,P,ugm-3 (BAM)
13-01-2024,07:00,18.358,P,ugm-3 (Ref.eq),12.100,P,ugm-3 (BAM)
13-01-2024,08:00,13.527,P,ugm-3 (Ref.eq),14.100,P,ugm-3 (BAM)
13-01-2024,09:00,14.493,P,ugm-3 (Ref.eq),12.100,P,ugm-3 (BAM)
13-01-2024,10:00,14.493,P,ugm-3 (Ref.eq),13.100,P,ugm-3 (BAM)
13-01-2024,11:00,15.459,P,ugm-3 (Ref.eq),14.100,P,ugm-3 (BAM)
13-01-2024,12:00,23.189,P,ugm-3 (Ref.eq),14.100,P,ugm-3 (BAM)
13-01-2024,13:00,24.155,P,ugm-3 (Ref.eq),14.100,P,ugm-3 (BAM)
13-01-2024,14:00,26.087,P,ugm-3 (Ref.eq),18.100,P,ugm-3 (BAM)
13-01-2024,15:00,26.087,P,ugm-3 (Ref.eq),18.100,P,ugm-3 (BAM)
13-01-2024,16:00,26.087,P,ugm-3 (Ref.eq),21.100,P,ugm-3 (BAM)
13-01-2024,17:00,28.020,P,ugm-3 (Ref.eq),19.100,P,ugm-3 (BAM)
13-01-2024,18:00,31.885,P,ugm-3 (Ref.eq),24.100,P,ugm-3 (BAM)
13-01-2024,19:00,35.749,P,ugm-3 (Ref.eq),25.100,P,ugm-3 (BAM)
13-01-2024,20:00,39.614,P,ugm-3 (Ref.eq),28.100,P,ugm-3 (BAM)
13-01-2024,21:00,37.682,P,ugm-3 (Ref.eq),28.100,P,ugm-3 (BAM)
13-01-2024,22:00,29.952,P,ugm-3 (Ref.eq),21.100,P,ugm-3 (BAM)
13-01-2024,23:00,24.155,P,ugm-3 (Ref.eq),17.100,P,ugm-3 (BAM)
13-01-2024,24:00,21.256,P,ugm-3 (Ref.eq),15.100,P,ugm-3 (BAM)
14-01-2024,01:00,21.256,P,ugm-3 (Ref.eq),10.100,P,ugm-3 (BAM)
14-01-2024,02:00,20.290,P,ugm-3 (Ref.eq),10.100,P,ugm-3 (BAM)
14-01-2024,03:00,16.425,P,ugm-3 (Ref.eq),11.100,P,ugm-3 (BAM)
14-01-2024,04:00,10.628,P,ugm-3 (Ref.eq),8.100,P,ugm-3 (BAM)
14-01-2024,05:00,17.392,P,ugm-3 (Ref.eq),7.100,P,ugm-3 (BAM)
14-01-2024,06:00,10.628,P,ugm-3 (Ref.eq),8.100,P,ugm-3 (BAM)
14-01-2024,07:00,6.763,P,ugm-3 (Ref.eq),9.100,P,ugm-3 (BAM)
14-01-2024,08:00,11.594,P,ugm-3 (Ref.eq),9.100,P,ugm-3 (BAM)
14-01-2024,09:00,13.527,P,ugm-3 (Ref.eq),10.100,P,ugm-3 (BAM)
14-01-2024,10:00,16.425,P,ugm-3 (Ref.eq),9.100,P,ugm-3 (BAM)
14-01-2024,11:00,11.594,P,ugm-3 (Ref.eq),10.100,P,ugm-3 (BAM)
14-01-2024,12:00,8.696,P,ugm-3 (Ref.eq),8.100,P,ugm-3 (BAM)
14-01-2024,13:00,13.527,P,ugm-3 (Ref.eq),10.100,P,ugm-3 (BAM)
14-01-2024,14:00,10.628,P,ugm-3 (Ref.eq),7.100,P,ugm-3 (BAM)
14-01-2024,15:00,14.493,P,ugm-3 (Ref.eq),6.100,P,ugm-3 (BAM)
14-01-2024,16:00,27.054,P,ugm-3 (Ref.eq),20.100,P,ugm-3 (BAM)
14-01-2024,17:00,29.952,P,ugm-3 (Ref.eq),26.100,P,ugm-3 (BAM)
14-01-2024,18:00,62.803,P,ugm-3 (Ref.eq),50.100,P,ugm-3 (BAM)
14-01-2024,19:00,59.904,P,ugm-3 (Ref.eq),57.100,P,ugm-3 (BAM)
14-01-2024,20:00,36.716,P,ugm-3 (Ref.eq),29.100,P,ugm-3 (BAM)
14-01-2024,21:00,36.716,P,ugm-3 (Ref.eq),38.100,P,ugm-3 (BAM)
14-01-2024,22:00,33.817,P,ugm-3 (Ref.eq),29.100,P,ugm-3 (BAM)
14-01-2024,23:00,33.817,P,ugm-3 (Ref.eq),29.100,P,ugm-3 (BAM)
14-01-2024,24:00,28.986,P,ugm-3 (Ref.eq),24.100,P,ugm-3 (BAM)
15-01-2024,01:00,27.054,P,ugm-3 (Ref.eq),23.100,P,ugm-3 (BAM)
15-01-2024,02:00,16.425,P,ugm-3 (Ref.eq),17.100,P,ugm-3 (BAM)
15-01-2024,03:00,13.527,P,ugm-3 (Ref.eq),14.100,P,ugm-3 (BAM)
15-01-2024,04:00,11.594,P,ugm-3 (Ref.eq),10.100,P,ugm-3 (BAM)
15-01-2024,05:00,10.628,P,ugm-3 (Ref.eq),9.100,P,ugm-3 (BAM)
15-01-2024,06:00,10.628,P,ugm-3 (Ref.eq),7.100,P,ugm-3 (BAM)
15-01-2024,07:00,14.493,P,ugm-3 (Ref.eq),7.100,P,ugm-3 (BAM)
15-01-2024,08:00,12.561,P,ugm-3 (Ref.eq),8.100,P,ugm-3 (BAM)
15-01-2024,09:00,24.155,P,ugm-3 (Ref.eq),11.100,P,ugm-3 (BAM)
15-01-2024,10:00,12.561,P,ugm-3 (Ref.eq),12.100,P,ugm-3 (BAM)
15-01-2024,11:00,16.425,P,ugm-3 (Ref.eq),10.100,P,ugm-3 (BAM)
15-01-2024,12:00,14.493,P,ugm-3 (Ref.eq),6.100,P,ugm-3 (BAM)
15-01-2024,13:00,12.561,P,ugm-3 (Ref.eq),4.100,P,ugm-3 (BAM)
15-01-2024,14:00,19.324,P,ugm-3 (Ref.eq),3.100,P,ugm-3 (BAM)
15-01-2024,15:00,58.938,P,ugm-3 (Ref.eq),2.100,P,ugm-3 (BAM)
15-01-2024,16:00,54.107,P,ugm-3 (Ref.eq),4.100,P,ugm-3 (BAM)
15-01-2024,17:00,89.857,P,ugm-3 (Ref.eq),16.100,P,ugm-3 (BAM)
15-01-2024,18:00,107.248,P,ugm-3 (Ref.eq),40.100,P,ugm-3 (BAM)
15-01-2024,19:00,20.290,P,ugm-3 (Ref.eq),14.100,P,ugm-3 (BAM)
15-01-2024,20:00,24.155,P,ugm-3 (Ref.eq),17.100,P,ugm-3 (BAM)
15-01-2024,21:00,28.986,P,ugm-3 (Ref.eq),28.100,P,ugm-3 (BAM)
15-01-2024,22:00,39.614,P,ugm-3 (Ref.eq),26.100,P,ugm-3 (BAM)
15-01-2024,23:00,44.445,P,ugm-3 (Ref.eq),42.100,P,ugm-3 (BAM)
15-01-2024,24:00,28.020,P,ugm-3 (Ref.eq),20.100,P,ugm-3 (BAM)
16-01-2024,01:00,17.392,P,ugm-3 (Ref.eq),15.100,P,ugm-3 (BAM)
16-01-2024,02:00,20.290,P,ugm-3 (Ref.eq),14.100,P,ugm-3 (BAM)
16-01-2024,03:00,18.358,P,ugm-3 (Ref.eq),16.100,P,ugm-3 (BAM)
16-01-2024,04:00,13.527,P,ugm-3 (Ref.eq),13.100,P,ugm-3 (BAM)
16-01-2024,05:00,16.425,P,ugm-3 (Ref.eq),16.100,P,ugm-3 (BAM)
16-01-2024,06:00,15.459,P,ugm-3 (Ref.eq),12.100,P,ugm-3 (BAM)
16-01-2024,07:00,57.972,P,ugm-3 (Ref.eq),53.100,P,ugm-3 (BAM)
16-01-2024,08:00,17.392,P,ugm-3 (Ref.eq),14.100,P,ugm-3 (BAM)
16-01-2024,09:00,24.155,P,ugm-3 (Ref.eq),19.100,P,ugm-3 (BAM)
16-01-2024,10:00,14.493,P,ugm-3 (Ref.eq),9.100,P,ugm-3 (BAM)
16-01-2024,11:00,19.324,P,ugm-3 (Ref.eq),8.100,P,ugm-3 (BAM)
16-01-2024,12:00,19.324,P,ugm-3 (Ref.eq),11.100,P,ugm-3 (BAM)
16-01-2024,13:00,23.189,P,ugm-3 (Ref.eq),10.100,P,ugm-3 (BAM)
16-01-2024,14:00,14.493,P,ugm-3 (Ref.eq),6.100,P,ugm-3 (BAM)
16-01-2024,15:00,23.189,P,ugm-3 (Ref.eq),3.100,P,ugm-3 (BAM)
16-01-2024,16:00,50.242,P,ugm-3 (Ref.eq),2.100,P,ugm-3 (BAM)
16-01-2024,17:00,55.073,P,ugm-3 (Ref.eq),8.100,P,ugm-3 (BAM)
16-01-2024,18:00,42.513,P,ugm-3 (Ref.eq),17.100,P,ugm-3 (BAM)
16-01-2024,19:00,43.479,P,ugm-3 (Ref.eq),15.100,P,ugm-3 (BAM)
16-01-2024,20:00,25.121,P,ugm-3 (Ref.eq),14.100,P,ugm-3 (BAM)
16-01-2024,21:00,21.256,P,ugm-3 (Ref.eq),11.100,P,ugm-3 (BAM)
16-01-2024,22:00,22.223,P,ugm-3 (Ref.eq),10.100,P,ugm-3 (BAM)
16-01-2024,23:00,15.459,P,ugm-3 (Ref.eq),7.100,P,ugm-3 (BAM)
16-01-2024,24:00,14.493,P,ugm-3 (Ref.eq),7.100,P,ugm-3 (BAM)
17-01-2024,01:00,14.493,P,ugm-3 (Ref.eq),7.100,P,ugm-3 (BAM)
17-01-2024,02:00,11.594,P,ugm-3 (Ref.eq),9.100,P,ugm-3 (BAM)
17-01-2024,03:00,9.662,P,ugm-3 (Ref.eq),9.100,P,ugm-3 (BAM)
17-01-2024,04:00,12.561,P,ugm-3 (Ref.eq),7.100,P,ugm-3 (BAM)
17-01-2024,05:00,10.628,P,ugm-3 (Ref.eq),10.100,P,ugm-3 (BAM)
17-01-2024,06:00,11.594,P,ugm-3 (Ref.eq),10.100,P,ugm-3 (BAM)
17-01-2024,07:00,17.392,P,ugm-3 (Ref.eq),7.100,P,ugm-3 (BAM)
17-01-2024,08:00,27.054,P,ugm-3 (Ref.eq),5.100,P,ugm-3 (BAM)
17-01-2024,09:00,37.682,P,ugm-3 (Ref.eq),6.100,P,ugm-3 (BAM)
17-01-2024,10:00,29.952,P,ugm-3 (Ref.eq),6.100,P,ugm-3 (BAM)
17-01-2024,11:00,23.189,P,ugm-3 (Ref.eq),7.100,P,ugm-3 (BAM)
17-01-2024,12:00,26.087,P,ugm-3 (Ref.eq),6.100,P,ugm-3 (BAM)
17-01-2024,13:00,26.087,P,ugm-3 (Ref.eq),7.100,P,ugm-3 (BAM)
17-01-2024,14:00,20.290,P,ugm-3 (Ref.eq),10.100,P,ugm-3 (BAM)
17-01-2024,15:00,18.358,P,ugm-3 (Ref.eq),11.100,P,ugm-3 (BAM)
17-01-2024,16:00,21.256,P,ugm-3 (Ref.eq),9.100,P,ugm-3 (BAM)
17-01-2024,17:00,19.324,P,ugm-3 (Ref.eq),8.100,P,ugm-3 (BAM)
17-01-2024,18:00,16.425,P,ugm-3 (Ref.eq),12.100,P,ugm-3 (BAM)
17-01-2024,19:00,15.459,P,ugm-3 (Ref.eq),14.100,P,ugm-3 (BAM)
17-01-2024,20:00,15.459,P,ugm-3 (Ref.eq),12.100,P,ugm-3 (BAM)
17-01-2024,21:00,11.594,P,ugm-3 (Ref.eq),8.100,P,ugm-3 (BAM)
17-01-2024,22:00,15.459,P,ugm-3 (Ref.eq),7.100,P,ugm-3 (BAM)
17-01-2024,23:00,16.425,P,ugm-3 (Ref.eq),10.100,P,ugm-3 (BAM)
17-01-2024,24:00,17.392,P,ugm-3 (Ref.eq),12.100,P,ugm-3 (BAM)
18-01-2024,01:00,18.358,P,ugm-3 (Ref.eq),12.100,P,ugm-3 (BAM)
18-01-2024,02:00,17.392,P,ugm-3 (Ref.eq),11.100,P,ugm-3 (BAM)
18-01-2024,03:00,16.425,P,ugm-3 (Ref.eq),13.100,P,ugm-3 (BAM)
18-01-2024,04:00,14.493,P,ugm-3 (Ref.eq),11.100,P,ugm-3 (BAM)
18-01-2024,05:00,3.865,P,ugm-3 (Ref.eq),6.100,P,ugm-3 (BAM)
18-01-2024,06:00,7.730,P,ugm-3 (Ref.eq),2.100,P,ugm-3 (BAM)
18-01-2024,07:00,10.628,P,ugm-3 (Ref.eq),5.100,P,ugm-3 (BAM)
18-01-2024,08:00,15.459,P,ugm-3 (Ref.eq),8.100,P,ugm-3 (BAM)
18-01-2024,09:00,17.392,P,ugm-3 (Ref.eq),10.100,P,ugm-3 (BAM)
18-01-2024,10:00,15.459,P,ugm-3 (Ref.eq),10.100,P,ugm-3 (BAM)
18-01-2024,11:00,9.662,P,ugm-3 (Ref.eq),9.100,P,ugm-3 (BAM)
18-01-2024,12:00,11.594,P,ugm-3 (Ref.eq),6.100,P,ugm-3 (BAM)
18-01-2024,13:00,10.628,P,ugm-3 (Ref.eq),4.100,P,ugm-3 (BAM)
18-01-2024,14:00,11.594,P,ugm-3 (Ref.eq),5.100,P,ugm-3 (BAM)
18-01-2024,15:00,24.155,P,ugm-3 (Ref.eq),4.100,P,ugm-3 (BAM)
18-01-2024,16:00,12.561,P,ugm-3 (Ref.eq),3.100,P,ugm-3 (BAM)
18-01-2024,17:00,22.223,P,ugm-3 (Ref.eq),9.100,P,ugm-3 (BAM)
18-01-2024,18:00,23.189,P,ugm-3 (Ref.eq),14.100,P,ugm-3 (BAM)
18-01-2024,19:00,19.324,P,ugm-3 (Ref.eq),12.100,P,ugm-3 (BAM)
18-01-2024,20:00,28.020,P,ugm-3 (Ref.eq),23.100,P,ugm-3 (BAM)
18-01-2024,21:00,28.986,P,ugm-3 (Ref.eq),27.100,P,ugm-3 (BAM)
18-01-2024,22:00,32.851,P,ugm-3 (Ref.eq),30.100,P,ugm-3 (BAM)
18-01-2024,23:00,37.682,P,ugm-3 (Ref.eq),34.100,P,ugm-3 (BAM)